Location: Vihti�l�
(61.3833°N, 23.0667°E)
Time: 04:21:04
(UTC+00:00)

COSMO-SKYMED 1 - Pass Details

Date: 29 November 2020
Orbit: 621 x 623 km, 97.9° (Epoch: 19 January)

Event Time Altitude Azimuth Distance (km) Brightness Sun altitude
Rises 03:26:31 0° 169° (S) 2,900 6.1 -24.7°
Reaches altitude 10° 03:28:42 10° 172° (S) 1,997 5.2 -24.4°
Enters shadow 03:31:24 37° 184° (S) 985 3.5 -24.1°
